Torna al catalogo

FENGYUN 1C DEB

AttivoPO
NORAD 30345·DEBRIS·🇨🇳 China

Lanciato May 10, 1999 da Taiyuan Satellite Launch Center

Loading…

Prossimi Passaggi (prossime 24 ore)

TLE

AggiornatoSource: Space-Track

Epoca: Sep 13, 2026, 04:02 UTC

1 30345U 99025ABG 26256.16820763  .00003419  00000-0  99809-3 0  9999
2 30345  98.9066 333.1703 0017988 149.7452 210.4780 14.44675974 17337

Traccia FENGYUN 1C DEB in tempo reale con AllMySat

Download on the App Store